Batavia, OH

11:16 AM EST on January 23, 2017 (GMT -0500)
Clermont County, Batavia

Weather History for KI69 - March, 2014

Change the Weather History Date:

Monday, March 17, 2014

  Actual Average (KLUK) Record (KLUK)
Temperature  
Mean Temperature 32 °F -  
Max Temperature 39 °F 52 °F 76 °F (1989)
Min Temperature 26 °F 32 °F 20 °F (1967)
Degree Days  
Heating Degree Days 32    
Moisture  
Dew Point 19 °F    
Average Humidity 60    
Maximum Humidity 75    
Minimum Humidity 44    
Precipitation  
Precipitation 0.00 in - - ()
Sea Level Pressure  
Sea Level Pressure 29.90 in    
Wind  
Wind Speed 8 mph (NE)    
Max Wind Speed 14 mph    
Max Gust Speed 23 mph    
Visibility 10 miles    
Events      
Averages and records for this station are not official NWS values.
T = Trace of Precipitation, MM = Missing Value Source: NWS Daily Summary

Daily Weather History Graph

Daily Weather History Graph

Search for Another Location

Airport or City:

Trip Planner

Search our weather history database for the weather conditions in past years. The results will help you decide how hot, cold, wet, or windy it might be!

Date:

Astronomy

Mar. 17, 2014 Rise Set
Actual Time 7:45 AM EDT 7:45 PM EDT
Civil Twilight 7:18 AM EDT 8:12 PM EDT
Nautical Twilight 6:47 AM EDT 8:43 PM EDT
Astronomical Twilight 6:15 AM EDT 9:15 PM EDT
Moon 9:00 PM EDT (3/17) 8:00 AM EDT (3/17)
Length of Visible Light 12h 54m
Length of Day
12h 00m
Full, 99% of the Moon is Illuminated
Mar 17
Full
Mar 23
Last Quarter
Mar 30
New
Apr 7
First Quarter
Apr 15
Full

Hourly Weather History & Observations

Time (EDT) Temp. Windchill Dew Point Humidity Pressure Visibility Wind Dir Wind Speed Gust Speed Precip Events Conditions
12:14 AM 30.2 °F 19.8 °F 10.4 °F 44% 29.98 in 10.0 mi NE 13.8 mph 21.9 mph N/A   Overcast
12:35 AM 30.2 °F 20.2 °F 12.2 °F 47% 29.97 in 10.0 mi ENE 12.7 mph 21.9 mph N/A   Overcast
12:54 AM 30.2 °F 20.2 °F 12.2 °F 47% 29.97 in 10.0 mi NE 12.7 mph 21.9 mph N/A   Overcast
1:14 AM 30.2 °F 20.8 °F 12.2 °F 47% 29.96 in 10.0 mi NE 11.5 mph 18.4 mph N/A   Overcast
1:35 AM 30.2 °F 20.2 °F 12.2 °F 47% 29.96 in 10.0 mi ENE 12.7 mph 18.4 mph N/A   Overcast
1:54 AM 30.2 °F 21.9 °F 12.2 °F 47% 29.95 in 10.0 mi NE 9.2 mph 18.4 mph N/A   Overcast
2:14 AM 28.4 °F 18.5 °F 12.2 °F 51% 29.93 in 10.0 mi NE 11.5 mph 23.0 mph N/A   Overcast
2:35 AM 30.2 °F 21.3 °F 12.2 °F 47% 29.94 in 10.0 mi NE 10.4 mph 20.7 mph N/A   Overcast
2:54 AM 28.4 °F 20.4 °F 12.2 °F 51% 29.94 in 10.0 mi NE 8.1 mph - N/A   Overcast
3:14 AM 28.4 °F 19.7 °F 14.0 °F 55% 29.94 in 10.0 mi ENE 9.2 mph - N/A   Overcast
3:35 AM 28.4 °F 20.4 °F 12.2 °F 51% 29.93 in 10.0 mi NE 8.1 mph - N/A   Overcast
3:54 AM 28.4 °F 19.7 °F 14.0 °F 55% 29.92 in 10.0 mi NE 9.2 mph 19.6 mph N/A   Overcast
4:14 AM 28.4 °F 18.0 °F 14.0 °F 55% 29.91 in 10.0 mi NE 12.7 mph 17.3 mph N/A   Overcast
4:35 AM 28.4 °F 19.7 °F 14.0 °F 55% 29.92 in 10.0 mi NNE 9.2 mph - N/A   Overcast
4:54 AM 28.4 °F 20.4 °F 14.0 °F 55% 29.91 in 10.0 mi NE 8.1 mph 16.1 mph N/A   Overcast
5:14 AM 28.4 °F 18.5 °F 15.8 °F 59% 29.91 in 10.0 mi NNE 11.5 mph - N/A   Overcast
5:35 AM 26.6 °F 18.2 °F 17.6 °F 69% 29.90 in 10.0 mi NE 8.1 mph - N/A   Overcast
5:54 AM 26.6 °F 18.2 °F 17.6 °F 69% 29.90 in 10.0 mi NE 8.1 mph - N/A   Overcast
6:14 AM 26.6 °F 17.5 °F 17.6 °F 69% 29.91 in 10.0 mi NNE 9.2 mph - N/A   Overcast
6:35 AM 26.6 °F 18.2 °F 15.8 °F 64% 29.90 in 10.0 mi ENE 8.1 mph - N/A   Overcast
6:54 AM 26.6 °F 17.5 °F 15.8 °F 64% 29.91 in 10.0 mi NE 9.2 mph - N/A   Overcast
7:14 AM 26.6 °F 17.5 °F 15.8 °F 64% 29.90 in 10.0 mi NE 9.2 mph - N/A   Overcast
7:35 AM 26.6 °F 20.0 °F 17.6 °F 69% 29.90 in 10.0 mi NE 5.8 mph - N/A   Overcast
7:54 AM 26.6 °F 19.1 °F 17.6 °F 69% 29.90 in 10.0 mi NE 6.9 mph - N/A   Overcast
8:14 AM 26.6 °F 20.0 °F 17.6 °F 69% 29.91 in 10.0 mi NE 5.8 mph - N/A   Overcast
8:35 AM 26.6 °F 20.0 °F 17.6 °F 69% 29.91 in 10.0 mi NE 5.8 mph - N/A   Overcast
8:54 AM 28.4 °F 22.2 °F 17.6 °F 64% 29.91 in 10.0 mi NE 5.8 mph - N/A   Overcast
9:14 AM 28.4 °F 18.5 °F 17.6 °F 64% 29.91 in 10.0 mi NE 11.5 mph - N/A   Overcast
9:35 AM 28.4 °F 18.5 °F 15.8 °F 59% 29.91 in 10.0 mi NNE 11.5 mph - N/A   Overcast
9:54 AM 28.4 °F 20.4 °F 15.8 °F 59% 29.92 in 10.0 mi NNE 8.1 mph - N/A   Overcast
10:14 AM 28.4 °F 19.7 °F 15.8 °F 59% 29.94 in 10.0 mi NNE 9.2 mph - N/A   Overcast
10:35 AM 28.4 °F 23.3 °F 15.8 °F 59% 29.95 in 10.0 mi NE 4.6 mph - N/A   Overcast
10:54 AM 30.2 °F 25.4 °F 17.6 °F 60% 29.94 in 10.0 mi NE 4.6 mph - N/A   Overcast
11:14 AM 30.2 °F 23.4 °F 17.6 °F 60% 29.93 in 10.0 mi NE 6.9 mph - N/A   Overcast
11:35 AM 30.2 °F 23.4 °F 17.6 °F 60% 29.92 in 10.0 mi NE 6.9 mph - N/A   Overcast
11:54 AM 30.2 °F 24.3 °F 17.6 °F 60% 29.91 in 10.0 mi NE 5.8 mph - N/A   Overcast
12:14 PM 32.0 °F 27.5 °F 17.6 °F 55% 29.91 in 10.0 mi ENE 4.6 mph - N/A   Overcast
12:35 PM 32.0 °F 26.4 °F 17.6 °F 55% 29.89 in 10.0 mi NE 5.8 mph - N/A   Overcast
12:54 PM 32.0 °F 26.4 °F 19.4 °F 60% 29.88 in 10.0 mi East 5.8 mph - N/A   Overcast
1:14 PM 32.0 °F 24.8 °F 19.4 °F 60% 29.88 in 10.0 mi ENE 8.1 mph - N/A   Overcast
1:35 PM 33.8 °F 29.6 °F 19.4 °F 56% 29.88 in 10.0 mi ENE 4.6 mph - N/A   Overcast
1:54 PM 33.8 °F - 19.4 °F 56% 29.88 in 10.0 mi Calm Calm - N/A   Overcast
2:14 PM 35.6 °F 31.7 °F 21.2 °F 56% 29.88 in 10.0 mi NNE 4.6 mph - N/A   Overcast
2:35 PM 35.6 °F 32.8 °F 21.2 °F 56% 29.87 in 10.0 mi ENE 3.5 mph - N/A   Overcast
2:54 PM 35.6 °F 30.7 °F 21.2 °F 56% 29.86 in 10.0 mi ENE 5.8 mph - N/A   Overcast
3:15 PM 37.4 °F 33.8 °F 21.2 °F 52% 29.86 in 10.0 mi North 4.6 mph - N/A   Overcast
3:35 PM 37.4 °F 33.8 °F 23.0 °F 56% 29.85 in 10.0 mi East 4.6 mph - N/A   Overcast
3:54 PM 37.4 °F 33.8 °F 23.0 °F 56% 29.85 in 10.0 mi ESE 4.6 mph - N/A   Overcast
4:15 PM 37.4 °F 34.9 °F 23.0 °F 56% 29.86 in 10.0 mi East 3.5 mph - N/A   Overcast
4:35 PM 37.4 °F 34.9 °F 23.0 °F 56% 29.85 in 10.0 mi NE 3.5 mph - N/A   Overcast
4:54 PM 37.4 °F 33.8 °F 23.0 °F 56% 29.85 in 10.0 mi NNE 4.6 mph - N/A   Overcast
5:15 PM 37.4 °F 33.8 °F 23.0 °F 56% 29.84 in 10.0 mi ENE 4.6 mph - N/A   Overcast
5:34 PM 37.4 °F 34.9 °F 24.8 °F 60% 29.83 in 10.0 mi NE 3.5 mph - N/A   Overcast
5:54 PM 37.4 °F - 24.8 °F 60% 29.83 in 10.0 mi Calm Calm - N/A   Overcast
6:15 PM 39.2 °F 35.9 °F 24.8 °F 56% 29.83 in 10.0 mi East 4.6 mph - N/A   Overcast
6:34 PM 39.2 °F 35.9 °F 24.8 °F 56% 29.84 in 10.0 mi ENE 4.6 mph - N/A   Overcast
6:54 PM 37.4 °F 32.8 °F 24.8 °F 60% 29.85 in 10.0 mi NE 5.8 mph - N/A   Overcast
7:15 PM 37.4 °F 33.8 °F 26.6 °F 65% 29.86 in 10.0 mi NE 4.6 mph - N/A   Overcast
7:34 PM 37.4 °F 34.9 °F 26.6 °F 65% 29.86 in 10.0 mi NE 3.5 mph - N/A   Overcast
7:54 PM 37.4 °F 33.8 °F 26.6 °F 65% 29.86 in 10.0 mi NNE 4.6 mph - N/A   Overcast
8:15 PM 37.4 °F 34.9 °F 26.6 °F 65% 29.86 in 10.0 mi NNE 3.5 mph - N/A   Overcast
8:34 PM 37.4 °F - 26.6 °F 65% 29.86 in 10.0 mi Calm Calm - N/A   Overcast
8:54 PM 35.6 °F - 24.8 °F 65% 29.86 in 10.0 mi Calm Calm - N/A   Scattered Clouds
9:15 PM 35.6 °F - 24.8 °F 65% 29.86 in 10.0 mi Calm Calm - N/A   Clear
9:34 PM 35.6 °F - 26.6 °F 70% 29.87 in 10.0 mi Calm Calm - N/A   Clear
9:54 PM 35.6 °F - 26.6 °F 70% 29.88 in 10.0 mi Calm Calm - N/A   Clear
10:15 PM 35.6 °F - 26.6 °F 70% 29.88 in 10.0 mi Calm Calm - N/A   Clear
10:34 PM 33.8 °F - 24.8 °F 70% 29.89 in 10.0 mi Calm Calm - N/A   Clear
10:54 PM 33.8 °F - 24.8 °F 70% 29.90 in 10.0 mi Calm Calm - N/A   Clear
11:15 PM 33.8 °F - 26.6 °F 75% 29.90 in 10.0 mi Calm Calm - N/A   Clear
11:34 PM 33.8 °F - 26.6 °F 75% 29.90 in 10.0 mi Calm Calm - N/A   Clear
11:54 PM 33.8 °F - 24.8 °F 70% 29.91 in 10.0 mi Calm Calm - N/A   Clear